SES-6 (39172 NORAD) Tracking and Keplerian Element Data

This shows tracking and keplerian element data for the satellite.

Feedback or suggestion? Click here.




ElementValue
Catalog39172
NameSES-6
Epoch Orbit3061
Epoch Day287.84254226
Epoch Year2021
RAAN294.4859
Inclination0.0419
Eccentricity0.0002263
Argument of Perigee268.2343
Mean Anonmoly83.7111
Mean Motion1.0027132
Decay Rate-2.79E-06
L11 39172U 13026A 21287.84254226 -.00000279 00000-0 00000-0 0 9996
L22 39172 0.0419 294.4859 0002263 268.2343 83.7111 1.00271320 30617

Live tracking and technical data element details for SES-6 (NORAD 39172). SES-6 can be tracked NOW for your location showing map with azimuth and elevation plus other details from your city location.

Track the satellite on the map from your city or location and see movement details for azimuth, elevation, latitude, longitude, range, height, and movement on the map or in text.







IsCatalogInMostPopularTable: catalog: 39172, numindb: 521
Update: records affected: 1



GetName: 39172 SES-6

Hit Count: updated at: Tue, 19 Oct 2021 09:01:04 GMT